Norfork Lake Weather Center

Moon Phase Calendar



Norfork Lake Water Level
Online Cameras

 


      

Current Conditions in Baxter
6/13/2021 6:48:40 AM

73°F
Feels Like 75
Clear
Humidity
100%
Pressure
29.88"
Wind
4 mph (NW)
Dew Point
73°F
UV Index
0/10 (Low)
Visibility
6 mi

Hourly Forecast

Date & Time Sun, Jun 13
6:00 AM
Sun, Jun 13
7:00 AM
Sun, Jun 13
8:00 AM
Sun, Jun 13
9:00 AM
Sun, Jun 13
10:00 AM
Sun, Jun 13
11:00 AM
Sun, Jun 13
12:00 PM
Sun, Jun 13
1:00 PM
Sun, Jun 13
2:00 PM
Sun, Jun 13
3:00 PM
Sun, Jun 13
4:00 PM
Sun, Jun 13
5:00 PM
Sun, Jun 13
6:00 PM
Sun, Jun 13
7:00 PM
Sun, Jun 13
8:00 PM
Sun, Jun 13
9:00 PM
Sun, Jun 13
10:00 PM
Sun, Jun 13
11:00 PM
Mon, Jun 14
12:00 AM
Mon, Jun 14
1:00 AM
Mon, Jun 14
2:00 AM
Mon, Jun 14
3:00 AM
Mon, Jun 14
4:00 AM
Mon, Jun 14
5:00 AM
Mon, Jun 14
6:00 AM
Mon, Jun 14
7:00 AM
Mon, Jun 14
8:00 AM
Mon, Jun 14
9:00 AM
Mon, Jun 14
10:00 AM
Mon, Jun 14
11:00 AM
Mon, Jun 14
12:00 PM
Mon, Jun 14
1:00 PM
Mon, Jun 14
2:00 PM
Mon, Jun 14
3:00 PM
Mon, Jun 14
4:00 PM
Mon, Jun 14
5:00 PM
Mon, Jun 14
6:00 PM
Mon, Jun 14
7:00 PM
Mon, Jun 14
8:00 PM
Mon, Jun 14
9:00 PM
Mon, Jun 14
10:00 PM
Mon, Jun 14
11:00 PM
Tue, Jun 15
12:00 AM
Tue, Jun 15
1:00 AM
Tue, Jun 15
2:00 AM
Tue, Jun 15
3:00 AM
Tue, Jun 15
4:00 AM
Tue, Jun 15
5:00 AM
Condition
Clear

Clear

Clear

Clear

Clear

Clear

Clouds

Clouds

Clouds

Clouds

Clouds

Clouds

Clouds

Clouds

Clear

Clear

Clear

Clouds

Clouds

Clouds

Clouds

Clouds

Clouds

Clouds

Clouds

Clouds

Clear

Clear

Clear

Clear

Clear

Clear

Clear

Clear

Clear

Clear

Clear

Clear

Clear

Clear

Clear

Clear

Clear

Clear

Clear

Clear

Clear

Clear
Temperature 73°F73°F74°F75°F78°F82°F86°F88°F89°F90°F90°F89°F87°F82°F75°F72°F70°F68°F67°F65°F65°F64°F63°F62°F62°F64°F69°F74°F79°F82°F85°F87°F89°F89°F89°F89°F88°F83°F77°F74°F72°F71°F69°F68°F68°F67°F67°F66°F
Feels Like 74°F75°F75°F76°F79°F86°F89°F90°F90°F90°F89°F89°F90°F84°F76°F73°F70°F68°F67°F65°F64°F64°F63°F62°F62°F64°F69°F74°F79°F83°F86°F87°F88°F89°F89°F90°F91°F87°F78°F75°F73°F71°F70°F69°F69°F68°F68°F67°F
Cloudiness 8%8%9%9%8%6%16%15%50%37%29%37%34%45%10%6%6%17%34%34%100%100%100%99%89%75%0%0%0%0%0%0%0%0%0%0%0%0%0%0%0%0%0%0%5%5%3%2%
Visibility 6 mi6 mi6 mi6 mi6 mi6 mi6 mi6 mi6 mi6 mi6 mi6 mi6 mi6 mi6 mi6 mi6 mi6 mi6 mi6 mi6 mi6 mi6 mi6 mi6 mi6 mi6 mi6 mi6 mi6 mi6 mi6 mi6 mi6 mi6 mi6 mi6 mi6 mi6 mi6 mi6 mi6 mi6 mi6 mi6 mi6 mi6 mi6 mi
Precipitation 0%0%0%0%0%0%0%0%0%0%0%0%0%0%0%0%0%0%0%0%0%0%0%0%0%0%0%0%0%0%0%0%0%0%0%0%0%0%0%0%0%0%0%0%0%0%0%0%
Humidity 99%100%98%93%80%68%54%47%40%37%36%38%50%64%73%73%71%70%71%74%75%77%80%83%86%85%75%67%60%52%46%42%39%38%39%41%51%65%74%76%78%84%88%90%92%94%96%96%
Dew Point 72°F73°F73°F73°F71°F70°F67°F65°F62°F60°F59°F60°F66°F68°F66°F63°F60°F58°F57°F57°F56°F57°F57°F57°F57°F59°F61°F62°F63°F63°F62°F61°F61°F61°F61°F62°F68°F70°F68°F66°F65°F65°F65°F65°F65°F65°F65°F65°F
Pressure 29.88"29.88"29.91"29.94"29.94"29.94"29.97"29.97"29.94"29.94"29.94"29.91"29.91"29.91"29.91"29.94"29.97"29.97"30"30"30"30.03"30.03"30.03"30.03"30.03"30.06"30.06"30.03"30.03"30.03"30.03"30"29.97"29.97"29.97"29.97"29.97"29.97"29.97"30"30"30"30.03"30.03"30.03"30.03"30.06"
Wind Speed 4.8 mph5 mph7.1 mph8.7 mph8 mph8.4 mph7.8 mph7.4 mph6.9 mph6.5 mph6.3 mph5.9 mph4.2 mph4.4 mph5.1 mph5.6 mph6 mph4.5 mph4.6 mph3.7 mph3.2 mph2.9 mph3 mph3.2 mph3.2 mph3.8 mph4.2 mph4.2 mph3.2 mph3.6 mph3.6 mph3.6 mph3.8 mph4.5 mph4.3 mph3.4 mph2.8 mph3.1 mph4 mph4.5 mph4.4 mph3.6 mph2.9 mph3 mph3 mph3.5 mph3 mph2.7 mph
Wind
Direction
324°
NW
337°
NNW
346°
NNW

N

N
25°
NNE
26°
NNE
22°
NNE
21°
NNE
22°
NNE
22°
NNE
16°
NNE
358°
N
335°
NNW
346°
NNW
359°
N
21°
NNE
12°
NNE

N
13°
NNE
25°
NNE
19°
NNE

N

N
353°
N

N

N
21°
NNE
27°
NNE
37°
NE
50°
NE
54°
NE
54°
NE
50°
NE
44°
NE
30°
NNE

N
356°
N
351°
N
355°
N

N

N

N

N
354°
N
354°
N
28°
NNE
41°
NE

Daily Forecast

Date High Low Precip. Humidity
Today
Jun 13

Clouds
90 °F
68 °F
73%
47%
Monday
Jun 14

Clear
89 °F
62 °F
0%
42%
Tuesday
Jun 15

Rain
88 °F
67 °F
54%
53%
Wednesday
Jun 16

Rain
89 °F
67 °F
23%
52%
Thursday
Jun 17

Rain
96 °F
70 °F
43%
45%
Friday
Jun 18

Rain
93 °F
68 °F
69%
45%
Saturday
Jun 19

Rain
81 °F
59 °F
69%
41%
Sunday
Jun 20

Clear
81 °F
57 °F
0%
48%
Monday
Jun 21

Rain
83 °F
59 °F
20%
60%
Tuesday
Jun 22

Clear
90 °F
66 °F
0%
49%
Wednesday
Jun 23

Rain
79 °F
69 °F
100%
93%
Thursday
Jun 24

Clouds
88 °F
66 °F
2%
44%
Friday
Jun 25

Clear
92 °F
64 °F
0%
44%
Saturday
Jun 26

Clouds
92 °F
69 °F
26%
41%
Sunday
Jun 27

Rain
88 °F
70 °F
96%
94%
Monday
Jun 28

Clouds
93 °F
73 °F
0%
51%

Temperature 8-14 Day Outlook



Precipitation 8-14 Day Outlook




Quick Links
Norfork Lake News
Norfork Lake Photos
Norfork Lake Videos




About Us
Contact Us
Site Map
Search Site
Advertise With Us
   
Norfork.USLakes.info
THE NORFORK LAKE WEBSITE

Copyright 2021, Lakes Online
Privacy    |    Legal